Location: Larkspur
(54.4391°N, 113.7691°W)
Time: 22:00:21
(UTC+00:00)

MOZHAYETS 4 - Pass Details

Date: 03 December 2023
Orbit: 654 x 672 km, 98.3° (Epoch: 03 March)

Event Time Altitude Azimuth Distance (km) Brightness Sun altitude
Rises 00:39:27 0° 11° (N) 3,033 10.8 -11.5°
Reaches altitude 10° 00:41:48 10° 3° (N) 2,117 10.1 -11.8°
Maximum altitude 00:46:04 38° 296° (WNW) 1,037 9.1 -12.4°
Drops below altitude 10° 00:50:18 10° 230° (SW) 2,108 11.5 -13.0°
Sets 00:52:38 0° 222° (SW) 3,018 12.2 -13.3°
